sat.trackr.live / text

‹ back to catalog

STARLINK-31283

NORAD 59174 · 2024-044Y

PAYLOAD ACTIVE UNKNOWN

§ Identity

Operator
Country
US
Launch date
2024-03-04
Launch site
AFETR
Launch vehicle
Mass (kg)
RCS (m²)

Purposes: comms

External: N2YO · Heavens-Above · Gunter

§ Orbital elements

Epoch: 2026-09-20T22:00:03.000096Z

Period
94.27 min
Inclination
43.0043°
Eccentricity
0.0001890
Mean motion
15.27573654 rev/d
Perigee alt
481.8 km
Apogee alt
484.4 km
Semi-major
6,861.2 km
B*
1.1867e-3
RAAN
37.5720°
Arg perigee
274.6513°
Mean anomaly
149.4059°
Rev number
586

§ Raw data

STARLINK-312831 59174U 24044Y   26263.91670139  .00032532  00000+0  11867-2 0  99942 59174  43.0043  37.5720 0001890 274.6513 149.4059 15.27573654  5868

JSON: /api/v1/satellites/59174 · /tle

For live sub-satellite position, see the globe view (requires WebGL).

§ Visibility from observer

Set your observer location to see the next 7 days of passes ≥ 10°. The values pass through the URL so the page stays shareable.

No JS? Fill the form by hand. The geolocation button needs JavaScript.